Location: Tucson
(32.2217°N, 110.9265°W)
Time: 17:44:26
(UTC-07:00)

N. Korean satellite - Pass Details

Date: 30 March 2019
Orbit: 457 x 508 km, 97.2° (Epoch: 18 April)

Event Time Altitude Azimuth Distance (km) Brightness Sun altitude
Rises 05:22:43 0° 40° (NE) 2,562 11.1 -11.7°
Reaches altitude 10° 05:26:37 10° 83° (E) 1,689 10.9 -10.9°
Maximum altitude 05:27:14 10° 93° (E) 1,669 10.7 -10.8°
Drops below altitude 10° 05:27:51 10° 103° (ESE) 1,692 10.5 -10.7°
Sets 05:31:46 0° 146° (SSE) 2,580 10.6 -9.8°
